Location: Appleton
(44.2618°N, 88.4157°W)
Time: 10:30:15
(UTC+00:00)

Vanguard 3 - Visible Passes

Search period start: 01 March 2021 00:00
Search period end: 11 March 2021 00:00
Orbit: 508 x 3261 km, 33.3° (Epoch: 28 February)

Date Brightness Start Highest point End Pass type
(mag) Time Alt. Az. Time Alt. Az. Time Alt. Az.
01 Mar 9.3 01:01:38 10° WSW 01:14:20 44° SSW 01:20:01 19° SE visible
01 Mar 9.7 03:18:49 10° W 03:24:35 20° SW 03:24:35 20° SW visible
02 Mar 9.2 02:01:14 10° W 02:11:44 33° SSW 02:14:46 26° S visible
03 Mar 9.6 00:43:42 10° W 00:57:27 45° SSW 01:04:58 13° SE visible
03 Mar 9.7 03:01:26 10° W 03:08:34 20° SW 03:09:32 20° SSW visible
04 Mar 9.5 01:43:28 10° W 01:54:52 33° SSW 01:59:45 20° SSE visible
05 Mar 9.8 00:25:43 10° W 00:40:27 45° SSW 00:49:19 10° SE visible
05 Mar 9.8 02:43:59 10° W 02:51:39 20° SW 02:54:34 17° SSW visible
06 Mar 9.8 01:25:38 10° W 01:37:52 33° SSW 01:44:50 13° SSE visible
07 Mar 10.1 00:07:43 10° W 00:23:19 45° SSW 00:32:58 10° SE visible
07 Mar 10.1 02:26:29 10° W 02:34:36 19° SW 02:39:42 12° S visible
08 Mar 10.1 01:07:47 10° W 01:20:43 33° SW 01:29:07 10° SSE visible
09 Mar 10.3 02:08:58 10° W 02:17:26 19° SW 02:23:43 10° S visible
10 Mar 10.3 00:49:55 10° W 01:03:27 32° SW 01:12:30 10° SSE visible
